[[{"header":{"parameterUnit":"m.s-1","parameterCategory":1,"la1":30.2992,"la2":30.254,"lo1":-89.0895,"lo2":-89.0443,"dy":0.0025,"dx":0.0025,"nx":19,"ny":19,"refTime":"2026-05-10T03:00:00:Z","depth":0,"parameterNumber":2,"parameterNumberName":"U-component_of_WINDS"},"data":[0,0,0,-2.5363,-2.5364,-2.5376,-2.5376,-2.5412,-2.5413,0,0,0,0,0,0,0,0,0,0,0,-2.5372,-2.5372,-2.5363,-2.5364,-2.5376,-2.5376,-2.5412,-2.5413,0,0,0,0,0,0,0,0,0,0,0,-2.5371,-2.5372,-2.5373,-2.5364,-2.5376,-2.5376,-2.5412,-2.5396,0,0,0,0,0,0,0,0,0,0,-2.538,-2.54,-2.5372,-2.5373,-2.5364,-2.5376,-2.5376,-2.5394,-2.5397,-2.5415,0,-2.5435,0,-2.5425,-2.5417,-2.5417,0,0,0,-2.5355,-2.5398,-2.539,-2.5373,-2.5364,-2.5376,-2.5368,-2.5395,-2.5398,-2.5418,-2.5435,-2.5436,-2.5425,-2.5417,-2.5417,-2.5554,-2.5555,0,0,-2.5354,-2.5381,-2.5389,-2.5393,-2.5392,-2.5368,-2.5369,-2.5397,-2.5417,-2.5436,-2.5437,-2.5426,-2.5417,-2.5418,-2.5553,-2.5555,0,0,0,-2.5358,-2.5381,-2.5372,-2.5392,-2.5392,-2.5368,-2.5369,-2.5416,-2.5411,-2.5437,-2.5426,-2.5418,-2.5418,-2.5552,-2.5554,-2.5632,0,0,0,-2.5357,-2.5383,-2.5372,-2.5388,-2.5392,-2.5404,-2.5388,-2.5409,-2.5411,-2.5426,-2.5418,-2.5419,-2.5551,-2.5553,-2.5627,-2.5665,0,0,0,-2.5367,-2.5384,-2.539,-2.539,-2.5396,-2.5403,-2.5399,-2.5409,-2.5405,-2.5417,-2.5419,-2.555,-2.5553,-2.5623,-2.5658,-2.5709,0,0,0,-2.5385,-2.546,-2.5391,-2.5471,-2.5396,-2.5451,-2.5399,-2.5439,-2.5458,-2.5418,-2.5551,-2.5554,-2.5622,-2.5654,-2.5705,-2.5757,-2.5781,0,0,-2.5494,-2.5474,-2.5518,-2.5458,-2.5532,-2.5447,-2.5533,-2.5526,-2.5503,-2.5539,-2.5542,-2.5629,-2.5658,-2.5708,-2.5906,-2.5926,0,0,0,-2.5562,-2.5594,-2.5608,-2.5628,-2.5623,-2.5623,-2.56,-2.5597,-2.5626,-2.5526,-2.566,-2.5676,-2.5705,-2.5729,-2.5745,-2.5768,-2.5566,-2.5565,-2.5565,-2.5756,-2.5721,-2.5793,-2.576,-2.578,-2.5754,-2.5767,-2.5759,-2.572,-2.5752,-2.5763,-2.5887,-2.5916,-2.5928,-2.5953,-2.5787,-2.5787,-2.5787,-2.5788,-2.5913,-2.5954,-2.5898,-2.5948,-2.5911,-2.5953,-2.5931,-2.5902,-2.5935,-2.5876,-2.59,-2.5839,-2.5951,-2.597,-2.5793,-2.5792,-2.5791,-2.5791,-2.5791,-2.6037,-2.6051,-2.6045,-2.6069,-2.6091,-2.6055,-2.609,-2.6055,-2.6023,-2.6046,-2.6054,-2.6052,-2.6047,-2.6052,-2.6052,-2.6053,-2.6053,-2.6054,-2.6054,-2.6168,-2.6159,-2.6192,-2.6193,-2.6201,-2.6206,-2.6181,-2.6188,-2.6186,-2.6158,-2.6158,-2.6116,-2.5967,-2.5931,-2.606,-2.6059,-2.6058,-2.6058,-2.6057,-2.6342,-2.6297,-2.6348,-2.6355,-2.6353,-2.6378,-2.6333,-2.6349,-2.6349,-2.6367,-2.6319,-2.6215,-2.6192,-2.6179,-2.6148,-2.6326,-2.6326,-2.6326,-2.6326,-2.6447,-2.6432,-2.6475,-2.649,-2.6499,-2.6463,-2.6522,-2.6503,-2.6477,-2.6475,-2.6444,-2.6401,-2.6388,-2.6373,-2.6355,-2.6326,-2.6546,-2.6546,-2.6546,-2.6553,-2.6536,-2.6593,-2.6565,-2.6561,-2.6558,-2.6612,-2.6631,-2.6592,-2.6554,-2.6473,-2.6464,-2.6393,-2.6372,-2.6334,-2.6308,-2.6254,0,0]},{"header":{"parameterUnit":"m.s-1","parameterCategory":1,"la1":30.2992,"la2":30.254,"lo1":-89.0895,"lo2":-89.0443,"dy":0.0025,"dx":0.0025,"nx":19,"ny":19,"refTime":"2026-05-10T03:00:00:Z","depth":0,"parameterNumber":3,"parameterNumberName":"V-component_of_WINDS"},"data":[0,0,0,-1.6564,-1.6564,-1.6584,-1.6584,-1.6619,-1.662,0,0,0,0,0,0,0,0,0,0,0,-1.6565,-1.6565,-1.6564,-1.6564,-1.6584,-1.6584,-1.6619,-1.662,0,0,0,0,0,0,0,0,0,0,0,-1.6564,-1.6565,-1.6566,-1.6564,-1.6584,-1.6584,-1.6619,-1.6601,0,0,0,0,0,0,0,0,0,0,-1.658,-1.6587,-1.6565,-1.6566,-1.6565,-1.6584,-1.6584,-1.66,-1.6602,-1.6615,0,-1.6629,0,-1.6625,-1.6623,-1.6623,0,0,0,-1.6559,-1.6586,-1.6585,-1.6566,-1.6565,-1.6584,-1.6574,-1.6601,-1.6603,-1.6618,-1.6629,-1.663,-1.6626,-1.6623,-1.6623,-1.6717,-1.6717,0,0,-1.6558,-1.6572,-1.6583,-1.6587,-1.6585,-1.6573,-1.6574,-1.6602,-1.6615,-1.6629,-1.6631,-1.6626,-1.6623,-1.6624,-1.6716,-1.6717,0,0,0,-1.6558,-1.6571,-1.657,-1.6586,-1.6588,-1.6574,-1.6575,-1.6614,-1.6612,-1.6631,-1.6627,-1.6624,-1.6624,-1.6715,-1.6716,-1.6764,0,0,0,-1.6558,-1.6572,-1.6569,-1.6578,-1.6588,-1.6602,-1.6587,-1.661,-1.6613,-1.6626,-1.6624,-1.6625,-1.6715,-1.6716,-1.6761,-1.6784,0,0,0,-1.6561,-1.6572,-1.6577,-1.6579,-1.6588,-1.6601,-1.66,-1.6611,-1.661,-1.6623,-1.6625,-1.6714,-1.6716,-1.6758,-1.678,-1.6813,0,0,0,-1.6569,-1.6619,-1.6578,-1.6632,-1.6588,-1.663,-1.66,-1.6631,-1.6647,-1.6624,-1.6715,-1.6716,-1.6757,-1.6777,-1.681,-1.6844,-1.6859,0,0,-1.664,-1.6628,-1.6659,-1.6622,-1.6675,-1.6625,-1.6685,-1.6687,-1.6675,-1.6703,-1.6706,-1.6762,-1.6779,-1.6812,-1.6937,-1.695,0,0,0,-1.6686,-1.6708,-1.6719,-1.6735,-1.6737,-1.6741,-1.6732,-1.6733,-1.6756,-1.6693,-1.6781,-1.6792,-1.681,-1.6826,-1.6836,-1.6852,-1.6724,-1.6724,-1.6723,-1.6808,-1.6789,-1.6838,-1.6822,-1.6838,-1.6827,-1.6838,-1.6837,-1.6815,-1.6836,-1.6845,-1.6923,-1.6941,-1.6949,-1.6965,-1.686,-1.686,-1.686,-1.686,-1.6911,-1.694,-1.6907,-1.6943,-1.6923,-1.6953,-1.6944,-1.6926,-1.6951,-1.6915,-1.693,-1.6894,-1.6963,-1.6976,-1.6864,-1.6863,-1.6863,-1.6862,-1.6862,-1.699,-1.7,-1.6999,-1.7019,-1.7036,-1.7017,-1.7042,-1.7023,-1.7005,-1.702,-1.7028,-1.7027,-1.7024,-1.7025,-1.7025,-1.7025,-1.7026,-1.7026,-1.7026,-1.7073,-1.707,-1.7093,-1.7098,-1.7105,-1.7111,-1.71,-1.7106,-1.7108,-1.7092,-1.7092,-1.7068,-1.6973,-1.695,-1.703,-1.7029,-1.7029,-1.7028,-1.7028,-1.7186,-1.7157,-1.7193,-1.72,-1.7203,-1.7222,-1.7195,-1.721,-1.7212,-1.7224,-1.7196,-1.7128,-1.7115,-1.7107,-1.7088,-1.7199,-1.7199,-1.7199,-1.7199,-1.7254,-1.7244,-1.7276,-1.7288,-1.7298,-1.7277,-1.7318,-1.7309,-1.7295,-1.7295,-1.7275,-1.7248,-1.724,-1.7231,-1.722,-1.7203,-1.734,-1.734,-1.7341,-1.7323,-1.7313,-1.7352,-1.7337,-1.7338,-1.7339,-1.7376,-1.7391,-1.7369,-1.7346,-1.7294,-1.7288,-1.7244,-1.723,-1.7209,-1.7192,-1.7159,0,0]}]]